Location: Unspecified
(0.0000°N, 0.0000°E)
Time: 08:38:54
(UTC+02:00)

Meteor PRIRODA - Visible Passes

Search period start: 19 June 2018 00:00
Search period end: 29 June 2018 00:00
Orbit: 493 x 513 km, 97.5° (Epoch: 18 June)

Date Brightness Start Highest point End Pass type
(mag) Time Alt. Az. Time Alt. Az. Time Alt. Az.
19 Jun 4.7 06:23:02 10° N 06:25:20 33° NNW 06:25:20 33° NNW visible
20 Jun 5.0 06:04:14 10° NNE 06:06:24 34° NNE 06:06:24 34° NNE visible
21 Jun 6.0 05:45:52 10° NE 05:47:27 22° NE 05:47:27 22° NE visible
22 Jun 6.9 05:28:03 10° ENE 05:28:31 12° ENE 05:28:31 12° ENE visible
22 Jun 5.8 07:02:37 10° NW 07:03:15 11° WNW 07:03:15 11° WNW visible
23 Jun 5.2 06:42:25 10° NNW 06:44:19 20° NW 06:44:19 20° NW visible
24 Jun 4.8 06:23:10 10° N 06:25:23 32° NNW 06:25:23 32° NNW visible
25 Jun 5.1 06:04:23 10° NNE 06:06:26 32° NNE 06:06:26 32° NNE visible
26 Jun 6.1 05:46:00 10° NE 05:47:29 21° NE 05:47:29 21° NE visible
27 Jun 6.9 05:28:11 10° ENE 05:28:33 12° ENE 05:28:33 12° ENE visible
27 Jun 5.8 07:02:45 10° NW 07:03:17 11° WNW 07:03:17 11° WNW visible
28 Jun 5.3 06:42:33 10° NNW 06:44:20 20° NW 06:44:20 20° NW visible
